GW7323 Weather Reports


time (UTC)temp
C
wind
direction
speed
KPH
gust
KPH
rain 1hr
cm
rain 24hr
cm
rain mn
cm
humidity
%
barometer
mb
20260503203510 16 287 24.1 37.0 0.00 0.00 0.00 48 1011.6
20260503203029 16 289 25.7 41.8 0.00 0.00 0.00 48 1011.6
20260503202514 16 287 20.9 41.8 0.00 0.00 0.00 48 1011.8
20260503202013 16 320 25.7 35.4 0.00 0.00 0.00 47 1011.8
20260503201531 16 298 24.1 35.4 0.00 0.00 0.00 47 1011.9
20260503201011 16 308 19.3 35.4 0.00 0.00 0.00 47 1011.8
20260503200514 16 269 16.1 35.4 0.00 0.00 0.00 47 1012.0
20260503200033 16 304 14.5 35.4 0.00 0.00 0.00 47 1012.1
20260503195508 16 305 17.7 32.2 0.00 0.00 0.00 45 1012.4
20260503195012 16 283 16.1 35.4 0.00 0.00 0.00 44 1012.5
20260503194527 16 304 20.9 35.4 0.00 0.00 0.00 44 1012.5
20260503194007 16 293 17.7 37.0 0.00 0.00 0.00 46 1012.5
20260503193507 16 252 19.3 37.0 0.00 0.00 0.00 45 1012.7
20260503193026 16 317 17.7 33.8 0.00 0.00 0.00 45 1012.7
20260503192510 16 321 24.1 35.4 0.00 0.00 0.00 44 1012.7
20260503192013 16 296 20.9 35.4 0.00 0.00 0.00 45 1013.1
20260503191528 16 323 11.3 24.1 0.00 0.00 0.00 48 1013.2
20260503191009 15 354 12.9 32.2 0.00 0.00 0.00 48 1013.4
20260503190512 15 307 16.1 32.2 0.00 0.00 0.00 50 1013.7
20260503190028 15 288 16.1 27.4 0.00 0.00 0.00 52 1013.8
20260503185510 15 302 17.7 27.4 0.00 0.00 0.00 53 1013.9
20260503185006 15 307 16.1 29.0 0.00 0.00 0.00 52 1014.0
20260503184522 15 290 19.3 29.0 0.00 0.00 0.00 50 1014.0
20260503184010 15 318 14.5 22.5 0.00 0.00 0.00 50 1014.1
20260503183520 14 298 11.3 38.6 0.00 0.00 0.00 49 1014.6
20260503183033 14 316 19.3 38.6 0.00 0.00 0.00 49 1014.7
20260503182507 15 277 17.7 38.6 0.00 0.00 0.00 50 1014.7
20260503182012 15 300 11.3 24.1 0.00 0.00 0.00 49 1014.5
20260503181542 15 311 14.5 24.1 0.00 0.00 0.00 50 1014.5
20260503181010 15 326 14.5 25.7 0.00 0.00 0.00 52 1014.5
20260503180504 15 269 16.1 29.0 0.00 0.00 0.00 51 1014.4
20260503180012 14 297 14.5 29.0 0.00 0.00 0.00 52 1014.5
20260503175503 14 277 14.5 30.6 0.00 0.00 0.00 52 1014.5
20260503175009 14 283 19.3 30.6 0.00 0.00 0.00 52 1014.6
20260503174519 14 304 16.1 25.7 0.00 0.00 0.00 53 1014.7
20260503174006 13 304 9.7 20.9 0.00 0.00 0.00 54 1015.0
20260503173506 13 286 14.5 20.9 0.00 0.00 0.00 54 1015.2
20260503173039 13 315 11.3 20.9 0.00 0.00 0.00 55 1015.4
20260503172506 13 284 9.7 20.9 0.00 0.00 0.00 55 1015.7
20260503172013 13 318 11.3 20.9 0.00 0.00 0.00 55 1015.7
20260503171523 13 330 8.0 33.8 0.00 0.00 0.00 55 1015.8
20260503171008 13 338 16.1 33.8 0.00 0.00 0.00 52 1015.9
20260503170513 13 3 11.3 27.4 0.00 0.00 0.00 54 1016.2
20260503151008 13 337 12.9 32.2 0.00 0.00 0.00 54 1017.1
20260503150514 13 290 14.5 32.2 0.00 0.00 0.00 55 1017.1
20260503131007 10 325 12.9 19.3 0.00 0.00 0.00 56 1017.8
20260503130508 10 311 14.5 20.9 0.00 0.00 0.00 56 1017.7
20260503110502 6 312 3.2 8.0 0.00 0.00 0.00 69 1017.3
20260503090511 5 335 6.4 9.7 0.00 0.00 0.00 72 1017.3
20260503081519 5 299 4.8 9.7 0.00 0.00 0.00 73 1017.3
20260503081008 5 329 6.4 9.7 0.00 0.00 0.00 73 1017.3
20260503080511 5 317 4.8 11.3 0.00 0.00 0.00 74 1017.3
20260503072507 5 319 3.2 6.4 0.00 0.00 0.00 76 1017.4
20260503072007 5 311 4.8 6.4 0.00 0.00 0.00 76 1017.5
20260503071519 5 308 4.8 6.4 0.00 0.00 0.00 76 1017.5
20260503071007 5 310 4.8 6.4 0.00 0.00 0.00 76 1017.5
20260503070506 5 317 4.8 6.4 0.00 0.00 0.00 76 1017.5
20260503055009 5 319 4.8 4.8 0.00 0.00 0.00 77 1017.9
20260503054523 5 333 3.2 4.8 0.00 0.00 0.00 77 1018.0
20260503054011 5 40 3.2 4.8 0.00 0.00 0.00 78 1018.0
20260503053510 5 59 1.6 3.2 0.00 0.00 0.00 78 1018.0
20260503053036 5 344 3.2 3.2 0.00 0.00 0.00 78 1018.1
20260503052512 5 335 3.2 3.2 0.00 0.00 0.00 77 1018.1
20260503052003 5 41 1.6 3.2 0.00 0.00 0.00 77 1018.1
20260503051510 5 60 1.6 3.2 0.00 0.00 0.00 77 1018.1
20260503051008 5 62 1.6 3.2 0.00 0.00 0.00 76 1018.1
20260503050506 5 62 3.2 4.8 0.00 0.00 0.00 75 1018.2
20260503050014 5 352 3.2 4.8 0.00 0.00 0.00 76 1018.2
20260503045507 5 41 1.6 4.8 0.00 0.00 0.00 75 1018.2
20260503045007 5 42 3.2 4.8 0.00 0.00 0.00 75 1018.3
20260503044551 5 50 1.6 3.2 0.00 0.00 0.00 75 1018.1
20260503044006 6 34 3.2 3.2 0.00 0.00 0.00 74 1018.1
20260503043507 6 35 3.2 3.2 0.00 0.00 0.00 74 1018.1
20260503043025 6 36 1.6 3.2 0.00 0.00 0.00 74 1018.2
20260503042507 6 18 1.6 4.8 0.00 0.00 0.00 74 1018.2
20260503042015 6 11 3.2 4.8 0.00 0.00 0.00 74 1018.2
20260503041527 6 352 3.2 4.8 0.00 0.00 0.00 74 1018.2
20260503041005 6 352 1.6 3.2 0.00 0.00 0.00 72 1018.2
20260503040508 6 359 3.2 4.8 0.00 0.00 0.00 71 1018.2
20260503040014 6 20 3.2 4.8 0.00 0.00 0.00 69 1018.2
20260503035504 6 351 3.2 3.2 0.00 0.00 0.00 71 1018.2
20260503035006 6 59 1.6 3.2 0.00 0.00 0.00 72 1018.2
20260503034514 6 65 1.6 3.2 0.00 0.00 0.00 71 1018.2
20260503034007 6 69 1.6 3.2 0.00 0.00 0.00 70 1018.2
20260503033508 6 49 1.6 3.2 0.00 0.00 0.00 69 1018.3
20260503033018 6 49 1.6 3.2 0.00 0.00 0.00 67 1018.3
20260503032508 6 49 1.6 3.2 0.00 0.00 0.00 67 1018.3
20260503032017 6 49 1.6 3.2 0.00 0.00 0.00 72 1018.2
20260503031524 6 49 1.6 3.2 0.00 0.00 0.00 72 1018.2
20260503031008 7 49 1.6 3.2 0.00 0.00 0.00 72 1018.2
20260503030511 7 49 1.6 3.2 0.00 0.00 0.00 72 1018.3
20260503030006 7 53 1.6 3.2 0.00 0.00 0.00 72 1018.2
20260503025509 7 53 1.6 3.2 0.00 0.00 0.00 71 1018.3
20260503025004 7 78 0.0 3.2 0.00 0.00 0.00 71 1018.2
20260503024514 7 77 0.0 1.6 0.00 0.00 0.00 72 1018.3
20260503024011 7 77 1.6 1.6 0.00 0.00 0.00 71 1018.2
20260503023506 7 78 0.0 1.6 0.00 0.00 0.00 70 1018.3
20260503023014 8 78 0.0 1.6 0.00 0.00 0.00 71 1018.3
20260503022507 8 78 0.0 1.6 0.00 0.00 0.00 70 1018.2
20260503022013 8 77 0.0 1.6 0.00 0.00 0.00 67 1018.2
20260503021523 8 64 0.0 3.2 0.00 0.00 0.00 66 1018.1
20260503021016 8 49 1.6 3.2 0.00 0.00 0.00 68 1018.1
20260503020512 8 78 1.6 3.2 0.00 0.00 0.00 66 1018.2
20260503020034 8 115 0.0 1.6 0.00 0.00 0.00 64 1018.1
20260503015512 8 115 0.0 3.2 0.00 0.00 0.00 65 1018.1
20260503015005 8 108 0.0 4.8 0.00 0.00 0.00 68 1018.0
20260503014507 8 68 1.6 4.8 0.00 0.00 0.00 65 1018.0
20260503014003 9 103 0.0 1.6 0.00 0.00 0.00 63 1017.9
20260503013503 9 126 0.0 1.6 0.00 0.00 0.00 61 1017.9
20260503013011 9 126 0.0 1.6 0.00 0.00 0.00 61 1017.8
20260503012507 10 126 0.0 1.6 0.00 0.00 0.00 59 1017.8
20260503012015 10 126 0.0 1.6 0.00 0.00 0.00 54 1017.8
20260503011519 10 126 0.0 1.6 0.00 0.00 0.00 49 1017.7
20260503011007 10 127 0.0 1.6 0.00 0.00 0.00 49 1017.8
20260503010510 10 127 0.0 1.6 0.00 0.00 0.00 50 1017.7
20260503010022 10 140 0.0 1.6 0.00 0.00 0.00 43 1017.7
20260503005507 10 141 0.0 1.6 0.00 0.00 0.00 41 1017.7
20260503005013 11 141 0.0 4.8 0.00 0.00 0.00 42 1017.7
20260503004504 11 139 0.0 4.8 0.00 0.00 0.00 40 1017.7
20260503004002 11 130 1.6 4.8 0.00 0.00 0.00 41 1017.7
20260503003506 11 117 1.6 4.8 0.00 0.00 0.00 39 1017.7
20260503003010 11 104 0.0 4.8 0.00 0.00 0.00 39 1017.7
20260503002503 11 127 0.0 4.8 0.00 0.00 0.00 37 1017.7
20260503002007 11 110 1.6 4.8 0.00 0.00 0.00 38 1017.7
20260503001514 11 58 3.2 4.8 0.00 0.00 0.00 38 1017.7
20260503001005 12 111 1.6 3.2 0.00 0.00 0.00 37 1017.7
20260503000506 12 110 1.6 3.2 0.00 0.00 0.00 36 1017.6
20260503000028 12 153 1.6 6.4 0.00 0.00 0.00 36 1017.6
20260502235507 12 118 3.2 6.4 0.00 0.00 0.00 36 1017.6
20260502235010 12 148 1.6 8.0 0.00 0.00 0.00 36 1017.6
20260502234547 12 106 3.2 8.0 0.00 0.00 0.00 36 1017.7
20260502234011 12 105 4.8 11.3 0.00 0.00 0.00 36 1017.7
20260502233503 12 118 4.8 12.9 0.00 0.00 0.00 36 1017.7
20260502233007 12 112 4.8 12.9 0.00 0.00 0.00 37 1017.8
20260502232504 12 108 4.8 11.3 0.00 0.00 0.00 37 1017.7
20260502232005 12 31 6.4 12.9 0.00 0.00 0.00 35 1017.8
20260502231510 12 149 1.6 12.9 0.00 0.00 0.00 35 1017.8
20260502231005 12 125 4.8 14.5 0.00 0.00 0.00 35 1017.8
20260502230506 12 80 1.6 14.5 0.00 0.00 0.00 34 1017.8
20260502230029 12 47 8.0 12.9 0.00 0.00 0.00 36 1017.8
20260502225508 12 108 3.2 14.5 0.00 0.00 0.00 36 1017.8
20260502225008 12 76 6.4 17.7 0.00 0.00 0.00 36 1017.9
20260502224521 12 22 12.9 19.3 0.00 0.00 0.00 35 1017.9
20260502224017 12 34 8.0 24.1 0.00 0.00 0.00 35 1017.9
20260502223511 12 358 12.9 24.1 0.00 0.00 0.00 35 1017.9
20260502223036 12 355 9.7 16.1 0.00 0.00 0.00 36 1017.9
20260502222503 12 37 9.7 20.9 0.00 0.00 0.00 35 1017.9
20260502222004 12 20 6.4 20.9 0.00 0.00 0.00 35 1017.9
20260502221507 12 44 12.9 20.9 0.00 0.00 0.00 34 1017.9
20260502221005 12 120 6.4 16.1 0.00 0.00 0.00 35 1017.9
20260502220507 12 86 6.4 16.1 0.00 0.00 0.00 34 1017.9
20260502220014 13 19 4.8 9.7 0.00 0.00 0.00 34 1017.9
20260502215505 12 118 0.0 16.1 0.00 0.00 0.00 35 1018.0
20260502215008 12 63 6.4 17.7 0.00 0.00 0.00 36 1018.1
20260502214520 12 339 11.3 17.7 0.00 0.00 0.00 35 1018.1
20260502214011 12 358 6.4 20.9 0.00 0.00 0.00 35 1018.0
20260502213511 11 150 8.0 20.9 0.00 0.00 0.00 36 1018.0
20260502213024 11 72 6.4 17.7 0.00 0.00 0.00 37 1018.0
20260502212507 11 105 6.4 17.7 0.00 0.00 0.00 37 1017.9
20260502212013 11 348 3.2 17.7 0.00 0.00 0.00 37 1018.0
20260502211506 11 136 6.4 17.7 0.00 0.00 0.00 37 1018.1
20260502211003 11 29 4.8 20.9 0.00 0.00 0.00 38 1018.1
20260502210504 11 32 6.4 20.9 0.00 0.00 0.00 35 1018.1
20260502210009 11 102 8.0 20.9 0.00 0.00 0.00 36 1018.2
20260502205508 11 32 14.5 20.9 0.00 0.00 0.00 37 1018.2
20260502205005 11 32 9.7 24.1 0.00 0.00 0.00 38 1018.2
20260502204521 11 31 8.0 24.1 0.00 0.00 0.00 37 1018.4
20260502204006 11 53 9.7 16.1 0.00 0.00 0.00 38 1018.3